Weather Roundup
Issued by NWS

Home | Current Version | Previous Version | Graphics & Text | Print | Product List | Glossary Off
Versions: 1 2 3 4 5 6 7 8 9 10 11 12 13 14 15 16 17 18 19 20 21 22 23 24 25 26 27 28 29 30 31 32 33 34 35 36 37 38 39 40 41 42 43 44 45 46 47 48 49 50

000
NZUS93 KARX 290110
HRRWXR

CURRENT HOURLY OBSERVATIONS ACROSS
MUCH OF THE UPPER MISSISSIPPI VALLEY
NATIONAL WEATHER SERVICE LA CROSSE WI
800 PM CDT WED JUN 28 2017


...SOUTHEAST MINNESOTA...


CITY           SKY/WX    TMP DP  RH WIND       PRES   REMARKS
ROCHESTER      MOCLDY    75  72  90 SW10      29.57R
ROCHESTER/MAYO CLOUDY    71  65  82 SW9       29.57S
WINONA         RAIN      70  66  88 SE8       29.60R
AUSTIN         CLOUDY    77  70  78 SW9       29.57F
ALBERT LEA     PTCLDY    79  63  57 SW6       29.57F
DODGE CENTER   LGT RAIN  75  66  73 W7        29.57S
PRESTON        CLOUDY    73  67  81 SW9G17    29.59S
OWATONNA       DRIZZLE   79  68  69 NW16      29.57R
FARIBAULT      PTCLDY    75  64  69 W7        29.58R
$$

...ELSEWHERE IN MINNESOTA...


CITY           SKY/WX    TMP DP  RH WIND       PRES   REMARKS
MINNEAPOLIS    PTCLDY    77  61  57 W14       29.53S
INTNL FALLS    LGT RAIN  60  58  92 MISG      29.61R
DULUTH         HVY RAIN  58  58 100 E10       29.50F FOG
RED WING       CLOUDY    77  64  65 NE5       29.54R
REDWOOD FALLS  CLEAR     79  61  53 NW12      29.57R
MANKATO        CLOUDY    78  65  63 NW12      29.58R
WORTHINGTON    CLEAR     79  64  60 W8        29.63R
FAIRMONT       PTCLDY    79  68  69 SW9       29.59R
$$

...SOUTHWEST WISCONSIN...


CITY           SKY/WX    TMP DP  RH WIND       PRES   REMARKS
LA CROSSE      CLOUDY    73  66  78 S9        29.59R
PRAIRIE DU CHI CLOUDY    64  63  95 SE5       29.63R
BOSCOBEL       CLOUDY    67  64  90 S5        29.64S
LONE ROCK      CLOUDY    68  63  84 SW8       29.64S
PLATTEVILLE    CLOUDY    67  67 100 SW13G25   29.69
FORT MC COY    CLOUDY    68  65  90 CALM      29.61R
CAMP DOUGLAS   CLOUDY    68  66  94 S5        29.60F
MAUSTON-NEW LI CLOUDY    69  65  88 SW7       29.60S
VIROQUA        FAIR      67  65  94 S3        29.62F
WIS DELLS      CLOUDY    68  65  92 SW7       29.63R
$$

...ELSEWHERE IN WISCONSIN...


CITY           SKY/WX    TMP DP  RH WIND       PRES   REMARKS
MILWAUKEE      LGT RAIN  68  61  78 N15       29.74S
MADISON        CLOUDY    65  61  87 S9G26     29.63R THUNDER
GREEN BAY      CLOUDY    66  65  96 SE13      29.64F
EAU CLAIRE     MOCLDY    68  66  93 SW8       29.56R
BLACK RVR FLS  LGT RAIN  69  69 100 N3        29.61R
MEDFORD        LGT RAIN  65  64  97 S9        29.59F
WAUSAU         LGT RAIN  66  65  96 S10       29.61F FOG
WIS RAPIDS     CLOUDY    68  66  93 CALM      29.63F
MARSHFIELD     LGT RAIN  67  64  90 S7        29.60F FOG
RICE LAKE      CLOUDY    69  67  94 S7        29.55F
$$

...NORTHEAST IOWA...


CITY           SKY/WX    TMP DP  RH WIND       PRES   REMARKS
WATERLOO       LGT RAIN  70  62  76 W18G25    29.66R
DUBUQUE        TSTM      66  64  93 VRB7      29.68R FOG
DECORAH        CLOUDY    70  66  88 CALM      29.58F
MASON CITY     CLOUDY    75  67  76 S12       29.62F
CHARLES CITY   CLOUDY    73  66  78 SW16      29.63R
OELWEIN        CLOUDY    70  64  83 SW14      29.67R
$$

...ELSEWHERE IN IOWA...


CITY           SKY/WX    TMP DP  RH WIND       PRES   REMARKS
DES MOINES     CLOUDY    74  68  81 SW13G20   29.65F
IOWA CITY      LGT RAIN  80  70  71 SW12G24   29.65F
FORT DODGE     CLEAR     81  70  69 W6        29.63S
MARSHALLTOWN   CLOUDY    71  65  81 NE14      29.67R
CEDAR RAPIDS   CLOUDY    77  73  87 SW14      29.67R
$$

...NORTHERN ILLINOIS...


CITY           SKY/WX    TMP DP  RH WIND       PRES   REMARKS
CHICAGO-OHARE  CLOUDY    78  62  57 S17       29.76S
CHICAGO-MIDWAY CLOUDY    80  62  54 S15G24    29.77F
MOLINE         LGT RAIN  80  68  66 S10G23    29.68F
ROCKFORD       CLOUDY    77  65  66 S29G35    29.68F THUNDER
PEORIA         CLOUDY    81  64  56 S18       29.80R
$$

NOTE: "FAIR" INDICATES FEW OR NO CLOUDS BELOW 12,000 FEET WITH NO
SIGNIFICANT WEATHER AND/OR OBSTRUCTIONS TO VISIBILITY. WIND
SPEEDS ARE IN MILES-PER-HOUR.




USA.gov is the U.S. government's official web portal to all federal, state and local government web resources and services.